Regional Weather Roundup
Issued by NWS New Orleans/Baton Rouge, LA

Home | Current Version | Previous Version | Graphics & Text | Print | Product List | Glossary On
Versions: 1 2 3 4 5 6 7 8 9 10 11 12 13 14 15 16 17 18 19 20 21 22 23 24 25 26 27 28 29 30 31 32 33 34 35 36 37 38 39 40 41 42 43 44 45 46 47 48 49 50
832
ASUS44 KLIX 292205
RWRLIX
NEW ORLEANS REGIONAL WEATHER ROUNDUP
NATIONAL WEATHER SERVICE NEW ORLEANS LA
400 PM CST THU JAN 29 2015

NOTE: "FAIR" INDICATES FEW OR NO CLOUDS BELOW 12,000 FEET WITH NO
      SIGNIFICANT WEATHER AND/OR OBSTRUCTIONS TO VISIBILITY.
      SKY/WX - SKY CONDITION AND SIGNIFICANT WEATHER.
      TMP - AIR TEMPERATURE.     DP    - DEWPOINT TEMPERATURE.
      RH  - RELATIVE HUMIDITY.   PRES  - PRESSURE.
      HI  - HEAT INDEX.          WCI   - WIND CHILL INDEX.

*  THESE STATIONS ARE NOT NWS OR FAA STATIONS AND ARE NOT UNDER
   NWS QUALITY CONTROL.

LAZ038-040-048-061>063-065>067-069-292300-
SOUTHEAST LOUISIANA

CITY           SKY/WX    TMP DP  RH WIND       PRES   REMARKS
N.O. AUDUBON     N/A     73  60  64 MISG        N/A
N.O. INTL ARPT MOSUNNY   76  54  46 SW12      30.17F
N.O. LAKEFRONT SUNNY     71  56  58 N5        30.18F
N.O. DOWNTOWN* NOT AVBL
SLIDELL        SUNNY     74  55  51 SW7G16    30.16F
BATON ROUGE    SUNNY     76  47  35 W13       30.16F
BOOTHVILLE     SUNNY     69  57  65 S9        30.22S
BELLE CHASSE   PTSUNNY   75  56  51 SW13      30.18F
BOGALUSA*        N/A     76  55  47 SW10G17   30.16F
GALLIANO*      CLEAR     74  60  61 S13       30.20F
NEW ROADS*       N/A     75  51  42 W8        30.17S
GONZALES*        N/A     75  54  47 SW7       30.17F
HAMMOND*       SUNNY     77  50  38 SW10      30.18S
HOUMA*         MOSUNNY   73  57  56 W12       30.19F
PORT FOURCHON* CLEAR     72  61  68 S7        30.25S

$$

MSZ070-080>082-292300-
SOUTHERN MISSISSIPPI

CITY           SKY/WX    TMP DP  RH WIND       PRES   REMARKS
MCCOMB         SUNNY     75  49  39 SW12      30.15R
GULFPORT       SUNNY     66  54  65 S6        30.18F
BILOXI         SUNNY     66  55  69 S12       30.18F
PASCAGOULA     SUNNY     68  54  60 S9        30.19F
STENNIS ARPT*  MOSUNNY   73  52  46 W10       30.17F

$$

COASTAL OBSERVATIONS
LAKE AND NEARSHORE STATIONS

STATION/POSITION TIME  TEMP    WIND        PRES    WAVE
                       AIR SEA DIR/SP/G            HT/PER
                 (UTC) (F)     (DEG/KT/KT) (MB)    (FT/S)
PASCAGOULA       2200   64     190/  7/  9 1022.1
WAVELAND YACHT   2200   64     180/  9/ 12 1021.1
GRAND ISLE       2200   69 63  200/  8/ 11 1023.6
SOUTHWEST PASS   2200   68 47  170/  6/  6 1023.7
NEW CANAL        2200   64 56   40/  3/  4 1022.1
SHELL BEACH      2200   71 58  180/ 11/ 15 1022.1

OFFSHORE STATIONS

STATION/POSITION TIME  TEMP    WIND        PRES    WAVE
                       AIR SEA DIR/SP/G            HT/PER
                 (UTC) (F)     (DEG/KT/KT) (MB)    (FT/S)
64 S DAUPHIN ISL 2131   68 70  220/  8/  8 1023.7    2/ 5

$$




USA.gov is the U.S. government's official web portal to all federal, state and local government web resources and services.